{"data":{"norad_id":63439,"epoch":"2026-09-20T10:14:05.236800Z","epoch_age_seconds":162007,"freshness":"FRESH","line1":"1 63439U 25069G   26263.42644950  .00016882  00000+0  50972-3 0  9990","line2":"2 63439  53.1599 309.8549 0001014  88.1518 271.9601 15.34395458 83334","mean_motion":15.34395458,"eccentricity":0.0001014,"inclination_deg":53.1599,"raan_deg":309.8549,"arg_perigee_deg":88.1518,"mean_anomaly_deg":271.9601,"bstar":0.00050972,"rev_number":8333,"period_min":93.848035882286,"perigee_km":462.02307745235,"apogee_km":463.41040259083,"semimajor_km":6840.8537400216,"source":"CELESTRAK","updated_at":"2026-09-21T09:00:35.002378Z"}}